FW3814 Weather Reports


time (UTC)temp
C
wind
direction
speed
KPH
gust
KPH
rain 1hr
cm
rain 24hr
cm
rain mn
cm
humidity
%
barometer
mb
20260903142004 31 273 4.8 11.3 0.00 0.00 0.00 31 1017.9
20260903141503 31 251 3.2 9.7 0.00 0.00 0.00 31 1017.8
20260903141003 31 249 8.0 9.7 0.00 0.00 0.00 31 1018.0
20260903140503 31 252 4.8 9.7 0.00 0.00 0.00 33 1018.1
20260903140024 31 268 1.6 9.7 0.00 0.00 0.00 33 1018.0
20260903135503 31 293 3.2 6.4 0.00 0.00 0.00 33 1018.1
20260903135003 31 308 1.6 6.4 0.00 0.00 0.00 33 1018.3
20260903134503 31 262 0.0 1.6 0.00 0.00 0.00 34 1018.3
20260903134003 30 315 0.0 1.6 0.00 0.00 0.00 34 1018.3
20260903133503 30 315 0.0 1.6 0.00 0.00 0.00 34 1018.1
20260903133003 30 0 0.0 0.0 0.00 0.00 0.00 34 1018.3
20260903132503 30 0 0.0 0.0 0.00 0.00 0.00 32 1018.3
20260903132005 31 0 0.0 0.0 0.00 0.00 0.00 32 1018.4
20260903131505 31 315 0.0 1.6 0.00 0.00 0.00 32 1018.3
20260903131005 31 305 0.0 4.8 0.00 0.00 0.00 33 1018.3
20260903130505 31 304 3.2 6.4 0.00 0.00 0.00 33 1018.4
20260903130005 31 305 3.2 6.4 0.00 0.00 0.00 33 1018.6
20260903125505 31 315 1.6 4.8 0.00 0.00 0.00 33 1018.6
20260903125005 31 315 0.0 6.4 0.00 0.00 0.00 35 1018.8
20260903124505 31 318 1.6 6.4 0.00 0.00 0.00 34 1018.7
20260903124005 31 292 1.6 6.4 0.00 0.00 0.00 35 1018.9
20260903123505 31 287 1.6 6.4 0.00 0.00 0.00 35 1018.8
20260903123005 31 283 0.0 1.6 0.00 0.00 0.00 36 1019.0
20260903122505 30 263 3.2 8.0 0.00 0.00 0.00 36 1018.8
20260903122005 30 271 3.2 8.0 0.00 0.00 0.00 36 1019.0
20260903121505 30 324 0.0 4.8 0.00 0.00 0.00 36 1019.0
20260903121005 30 0 0.0 0.0 0.00 0.00 0.00 36 1018.9
20260903120505 30 2 0.0 3.2 0.00 0.00 0.00 37 1019.0
20260903120005 30 11 1.6 4.8 0.00 0.00 0.00 37 1019.1
20260903115505 30 10 1.6 6.4 0.00 0.00 0.00 37 1019.0
20260903115005 30 360 1.6 6.4 0.00 0.00 0.00 38 1019.0
20260903114505 30 309 1.6 6.4 0.00 0.00 0.00 37 1019.1
20260903114005 30 303 1.6 4.8 0.00 0.00 0.00 37 1019.2
20260903113505 30 8 0.0 1.6 0.00 0.00 0.00 37 1019.1
20260903113005 30 360 0.0 1.6 0.00 0.00 0.00 37 1019.1
20260903112505 30 295 0.0 4.8 0.00 0.00 0.00 37 1019.2
20260903112026 30 278 1.6 4.8 0.00 0.00 0.00 38 1019.3
20260903111526 29 292 3.2 8.0 0.00 0.00 0.00 36 1019.1
20260903111005 30 303 1.6 8.0 0.00 0.00 0.00 36 1019.1
20260903110505 29 0 0.0 0.0 0.00 0.00 0.00 37 1019.2
20260903110005 29 0 0.0 0.0 0.00 0.00 0.00 37 1019.3
20260903105505 29 0 0.0 0.0 0.00 0.00 0.00 37 1019.3
20260903105005 29 0 0.0 0.0 0.00 0.00 0.00 38 1019.3
20260903104505 29 0 0.0 0.0 0.00 0.00 0.00 37 1019.4
20260903104005 29 0 0.0 0.0 0.00 0.00 0.00 38 1019.7
20260903103505 28 353 0.0 3.2 0.00 0.00 0.00 38 1019.5
20260903103005 28 353 0.0 4.8 0.00 0.00 0.00 37 1019.7
20260903102505 28 16 1.6 6.4 0.00 0.00 0.00 38 1019.8
20260903102005 28 17 4.8 8.0 0.00 0.00 0.00 38 1019.6
20260903101505 28 16 3.2 8.0 0.00 0.00 0.00 39 1019.8
20260903101005 28 2 4.8 6.4 0.00 0.00 0.00 40 1019.9
20260903100526 28 356 4.8 6.4 0.00 0.00 0.00 39 1020.0
20260903100005 28 358 3.2 8.0 0.00 0.00 0.00 39 1020.0
20260903095505 28 12 1.6 8.0 0.00 0.00 0.00 40 1020.1
20260903095005 28 306 0.0 3.2 0.00 0.00 0.00 40 1020.1
20260903094526 28 306 0.0 3.2 0.00 0.00 0.00 39 1019.8
20260903094026 28 247 0.0 1.6 0.00 0.00 0.00 40 1019.8
20260903093505 28 0 0.0 0.0 0.00 0.00 0.00 40 1019.9
20260903093005 27 360 0.0 3.2 0.00 0.00 0.00 40 1019.8
20260903092505 27 360 0.0 3.2 0.00 0.00 0.00 41 1019.8
20260903092005 27 0 0.0 0.0 0.00 0.00 0.00 42 1019.9
20260903091505 27 360 0.0 3.2 0.00 0.00 0.00 42 1019.9
20260903091005 27 360 0.0 3.2 0.00 0.00 0.00 43 1020.1
20260903090526 27 0 0.0 0.0 0.00 0.00 0.00 48 1020.1
20260903090026 27 0 0.0 0.0 0.00 0.00 0.00 48 1020.0
20260903085526 27 11 0.0 3.2 0.00 0.00 0.00 49 1019.9
20260903085005 26 13 1.6 3.2 0.00 0.00 0.00 48 1020.0
20260903084505 26 11 1.6 3.2 0.00 0.00 0.00 48 1020.0
20260903084005 26 360 0.0 3.2 0.00 0.00 0.00 49 1020.1
20260903083505 26 360 0.0 1.6 0.00 0.00 0.00 49 1019.8
20260903083005 26 342 1.6 4.8 0.00 0.00 0.00 50 1019.8
20260903082526 26 352 1.6 6.4 0.00 0.00 0.00 50 1019.6
20260903082026 26 1 3.2 6.4 0.00 0.00 0.00 50 1019.9
20260903081505 25 9 4.8 8.0 0.00 0.00 0.00 50 1019.9
20260903081005 25 19 4.8 8.0 0.00 0.00 0.00 50 1019.8
20260903080505 25 16 6.4 9.7 0.00 0.00 0.00 51 1020.0
20260903080026 25 8 6.4 9.7 0.00 0.00 0.00 51 1019.8
20260903075505 25 3 4.8 9.7 0.00 0.00 0.00 51 1019.9
20260903075005 25 13 3.2 6.4 0.00 0.00 0.00 51 1019.9
20260903074505 25 15 1.6 6.4 0.00 0.00 0.00 51 1019.9
20260903074005 25 360 0.0 3.2 0.00 0.00 0.00 52 1019.5
20260903073505 25 0 0.0 0.0 0.00 0.00 0.00 52 1019.4
20260903073005 24 315 0.0 3.2 0.00 0.00 0.00 52 1019.5
20260903072505 24 352 1.6 6.4 0.00 0.00 0.00 52 1019.4
20260903072005 23 354 3.2 6.4 0.00 0.00 0.00 52 1019.6
20260903071505 23 355 1.6 6.4 0.00 0.00 0.00 52 1019.5
20260903071026 23 343 1.6 6.4 0.00 0.00 0.00 53 1019.4
20260903070526 23 342 1.6 3.2 0.00 0.00 0.00 53 1019.5
20260903070005 23 5 1.6 6.4 0.00 0.00 0.00 53 1019.5
20260903065505 23 12 4.8 9.7 0.00 0.00 0.00 53 1019.4
20260903065005 22 15 6.4 9.7 0.00 0.00 0.00 53 1019.4
20260903064505 22 17 6.4 9.7 0.00 0.00 0.00 53 1019.4
20260903064005 22 15 6.4 6.4 0.00 0.00 0.00 54 1019.4
20260903063505 22 10 4.8 6.4 0.00 0.00 0.00 55 1019.4
20260903063026 22 2 4.8 6.4 0.00 0.00 0.00 60 1019.4
20260903062505 22 354 3.2 4.8 0.00 0.00 0.00 60 1019.4
20260903062005 22 355 3.2 4.8 0.00 0.00 0.00 60 1019.5
20260903061505 21 2 1.6 8.0 0.00 0.00 0.00 60 1019.4
20260903061005 21 357 3.2 8.0 0.00 0.00 0.00 60 1019.5
20260903060526 21 351 4.8 8.0 0.00 0.00 0.00 60 1019.3
20260903060005 21 354 4.8 8.0 0.00 0.00 0.00 60 1019.4
20260903055505 21 9 3.2 6.4 0.00 0.00 0.00 60 1019.1
20260903055026 21 4 1.6 6.4 0.00 0.00 0.00 59 1019.0
20260903054505 21 0 0.0 0.0 0.00 0.00 0.00 59 1019.0
20260903054005 21 0 0.0 0.0 0.00 0.00 0.00 59 1019.0
20260903053505 21 0 0.0 0.0 0.00 0.00 0.00 60 1019.0
20260903053005 21 29 3.2 9.7 0.00 0.00 0.00 60 1019.0
20260903052505 21 28 8.0 12.9 0.00 0.00 0.00 60 1018.9
20260903052005 21 24 11.3 12.9 0.00 0.00 0.00 60 1018.7
20260903051526 21 17 8.0 12.9 0.00 0.00 0.00 60 1018.9
20260903051005 20 12 4.8 11.3 0.00 0.00 0.00 60 1018.9
20260903050526 20 18 3.2 8.0 0.00 0.00 0.00 60 1018.8
20260903050005 20 18 3.2 11.3 0.00 0.00 0.00 60 1018.8
20260903045505 20 14 6.4 11.3 0.00 0.00 0.00 60 1018.7
20260903045005 20 11 6.4 11.3 0.00 0.00 0.00 60 1018.6
20260903044505 20 7 1.6 8.0 0.00 0.00 0.00 60 1018.5
20260903044005 20 360 0.0 3.2 0.00 0.00 0.00 60 1018.5
20260903043505 20 14 3.2 8.0 0.00 0.00 0.00 61 1018.4
20260903043005 20 12 8.0 9.7 0.00 0.00 0.00 61 1018.3
20260903042526 20 9 8.0 9.7 0.00 0.00 0.00 61 1018.5
20260903042005 20 6 4.8 8.0 0.00 0.00 0.00 61 1018.4
20260903041505 21 8 1.6 4.8 0.00 0.00 0.00 60 1018.3
20260903041005 21 22 0.0 3.2 0.00 0.00 0.00 60 1018.4
20260903040526 21 0 0.0 0.0 0.00 0.00 0.00 60 1018.1
20260903040008 21 0 0.0 0.0 0.00 0.00 0.00 60 1018.3
20260903035505 21 0 0.0 0.0 0.00 0.00 0.00 60 1018.1
20260903035026 20 0 0.0 0.0 0.00 0.00 0.00 60 1018.1
20260903034505 21 0 0.0 0.0 0.00 0.00 0.00 60 1018.1
20260903034005 21 0 0.0 0.0 0.00 0.00 0.00 60 1017.9
20260903033505 21 0 0.0 0.0 0.00 0.00 0.00 59 1017.9
20260903033005 21 16 0.0 6.4 0.00 0.00 0.00 58 1018.0
20260903032526 21 16 0.0 6.4 0.00 0.00 0.00 57 1018.1
20260903032005 22 7 3.2 12.9 0.00 0.00 0.00 57 1017.9
20260903031505 22 18 8.0 12.9 0.00 0.00 0.00 56 1017.7
20260903031005 22 23 11.3 17.7 0.00 0.00 0.00 56 1017.8
20260903030505 22 16 14.5 17.7 0.00 0.00 0.00 56 1017.7
20260903030005 22 10 12.9 14.5 0.00 0.00 0.00 56 1017.8
20260903025505 22 14 11.3 12.9 0.00 0.00 0.00 56 1017.7
20260903025026 22 17 9.7 12.9 0.00 0.00 0.00 57 1017.9
20260903024505 22 23 9.7 12.9 0.00 0.00 0.00 58 1017.8
20260903024005 22 35 8.0 12.9 0.00 0.00 0.00 59 1017.9
20260903023505 22 30 11.3 16.1 0.00 0.00 0.00 55 1017.9
20260903023005 22 38 12.9 17.7 0.00 0.00 0.00 55 1017.9
20260903022505 22 39 14.5 19.3 0.00 0.00 0.00 55 1017.7
20260903022005 22 22 14.5 19.3 0.00 0.00 0.00 56 1017.9
20260903021505 22 18 11.3 16.1 0.00 0.00 0.00 60 1017.9
20260903021004 22 25 12.9 16.1 0.00 0.00 0.00 61 1017.9
20260903020526 21 19 12.9 16.1 0.00 0.00 0.00 63 1017.9
20260903020005 21 6 6.4 11.3 0.00 0.00 0.00 63 1017.8
20260903015505 21 360 6.4 9.7 0.00 0.00 0.00 65 1017.8
20260903015026 21 4 6.4 9.7 0.00 0.00 0.00 65 1017.8
20260903014505 21 5 4.8 6.4 0.00 0.00 0.00 65 1017.9
20260903014026 21 4 4.8 6.4 0.00 0.00 0.00 65 1017.9
20260903013505 21 9 4.8 6.4 0.00 0.00 0.00 65 1017.9
20260903013005 21 357 4.8 6.4 0.00 0.00 0.00 64 1017.8
20260903012505 21 348 6.4 9.7 0.00 0.00 0.00 64 1017.7
20260903012005 21 355 4.8 9.7 0.00 0.00 0.00 63 1017.8
20260903011505 22 13 4.8 11.3 0.00 0.00 0.00 63 1017.9
20260903011005 22 21 8.0 11.3 0.00 0.00 0.00 63 1017.9
20260903010505 22 31 9.7 11.3 0.00 0.00 0.00 63 1017.8
20260903010026 22 26 8.0 11.3 0.00 0.00 0.00 63 1017.8
20260903005504 22 9 8.0 9.7 0.00 0.00 0.00 63 1017.8
20260903005005 22 19 11.3 12.9 0.00 0.00 0.00 63 1017.9
20260903004526 22 27 8.0 12.9 0.00 0.00 0.00 63 1017.9
20260903004005 22 26 8.0 12.9 0.00 0.00 0.00 63 1017.8
20260903003505 22 22 8.0 11.3 0.00 0.00 0.00 64 1017.8
20260903003026 22 33 6.4 11.3 0.00 0.00 0.00 64 1017.8
20260903002505 22 27 8.0 11.3 0.00 0.00 0.00 64 1017.7
20260903002005 22 17 8.0 12.9 0.00 0.00 0.00 64 1017.9
20260903001505 21 7 6.4 12.9 0.00 0.00 0.00 65 1017.8
20260903001026 21 237 4.8 6.4 0.00 0.00 0.00 65 1017.8
20260903000526 21 243 4.8 6.4 0.00 0.00 0.00 66 1017.8
20260903000026 21 5 4.8 6.4 0.00 0.00 0.00 66 1017.7
20260902235505 21 12 4.8 6.4 0.00 0.00 0.00 66 1017.8
20260902235005 21 9 3.2 6.4 0.00 0.00 0.00 65 1017.7
20260902234526 22 7 3.2 6.4 0.00 0.00 0.00 65 1017.8
20260902234005 22 6 3.2 4.8 0.00 0.00 0.00 64 1017.8
20260902233505 22 360 1.6 4.8 0.00 0.00 0.00 64 1017.8
20260902233005 22 360 1.6 4.8 0.00 0.00 0.00 64 1017.8
20260902232505 22 360 0.0 3.2 0.00 0.00 0.00 64 1017.7
20260902232005 22 360 1.6 3.2 0.00 0.00 0.00 64 1017.7
20260902231505 22 353 6.4 11.3 0.00 0.00 0.00 64 1017.7
20260902231003 22 355 4.8 11.3 0.00 0.00 0.00 61 1017.8
20260902230503 22 2 6.4 11.3 0.00 0.00 0.00 61 1017.6
20260902230004 22 8 8.0 11.3 0.00 0.00 0.00 62 1017.6
20260902225524 22 3 8.0 12.9 0.00 0.00 0.00 62 1017.7
20260902225024 22 5 6.4 12.9 0.00 0.00 0.00 62 1017.7
20260902224524 22 2 6.4 9.7 0.00 0.00 0.00 62 1017.7
20260902224003 22 360 6.4 9.7 0.00 0.00 0.00 62 1017.7
20260902223524 22 4 4.8 6.4 0.00 0.00 0.00 61 1017.7
20260902223003 22 7 4.8 6.4 0.00 0.00 0.00 61 1017.7
20260902222503 22 2 6.4 9.7 0.00 0.00 0.00 61 1017.7
20260902222003 22 7 8.0 9.7 0.00 0.00 0.00 61 1017.7
20260902221503 22 22 8.0 11.3 0.00 0.00 0.00 61 1017.8
20260902221003 22 20 6.4 11.3 0.00 0.00 0.00 61 1017.8
20260902220524 22 14 6.4 6.4 0.00 0.00 0.00 61 1017.8
20260902220003 22 359 4.8 11.3 0.00 0.00 0.00 61 1017.5
20260902215503 22 357 6.4 12.9 0.00 0.00 0.00 61 1017.8
20260902215003 22 9 8.0 12.9 0.00 0.00 0.00 61 1017.7
20260902214503 22 19 6.4 12.9 0.00 0.00 0.00 61 1017.6
20260902214003 23 19 6.4 8.0 0.00 0.00 0.00 61 1017.7
20260902213503 23 10 6.4 6.4 0.00 0.00 0.00 61 1017.6
20260902213003 23 10 4.8 6.4 0.00 0.00 0.00 62 1017.5
20260902212503 23 17 1.6 6.4 0.00 0.00 0.00 62 1017.7
20260902212024 23 22 0.0 3.2 0.00 0.00 0.00 62 1017.5
20260902211503 22 13 1.6 6.4 0.00 0.00 0.00 62 1017.6
20260902211003 23 13 1.6 6.4 0.00 0.00 0.00 61 1017.5
20260902210503 23 10 1.6 3.2 0.00 0.00 0.00 61 1017.5
20260902210024 23 12 3.2 6.4 0.00 0.00 0.00 61 1017.5
20260902205503 23 12 3.2 6.4 0.00 0.00 0.00 60 1017.4
20260902205003 23 12 1.6 4.8 0.00 0.00 0.00 61 1017.3
20260902204503 23 0 0.0 0.0 0.00 0.00 0.00 61 1017.3
20260902204003 23 0 0.0 0.0 0.00 0.00 0.00 61 1017.5
20260902203503 23 0 0.0 0.0 0.00 0.00 0.00 62 1017.3
20260902203003 23 0 0.0 0.0 0.00 0.00 0.00 62 1017.5
20260902202503 23 360 0.0 3.2 0.00 0.00 0.00 63 1017.1
20260902202004 23 5 1.6 6.4 0.00 0.00 0.00 63 1017.2
20260902201503 23 6 1.6 6.4 0.00 0.00 0.00 63 1017.4
20260902201003 23 360 0.0 3.2 0.00 0.00 0.00 63 1017.2
20260902200503 23 0 0.0 0.0 0.00 0.00 0.00 62 1017.3
20260902200003 23 0 0.0 0.0 0.00 0.00 0.00 62 1017.3
20260902195504 24 0 0.0 0.0 0.00 0.00 0.00 61 1017.1
20260902195003 24 0 0.0 0.0 0.00 0.00 0.00 61 1017.2
20260902194503 24 22 0.0 3.2 0.00 0.00 0.00 62 1016.9
20260902194003 24 22 0.0 3.2 0.00 0.00 0.00 62 1017.1
20260902193503 24 22 0.0 3.2 0.00 0.00 0.00 62 1017.0
20260902193003 24 0 0.0 0.0 0.00 0.00 0.00 62 1017.1
20260902192503 24 0 0.0 0.0 0.00 0.00 0.00 61 1017.1
20260902192024 24 0 0.0 0.0 0.00 0.00 0.00 61 1017.1
20260902191503 24 0 0.0 0.0 0.00 0.00 0.00 61 1017.0
20260902191024 24 0 0.0 0.0 0.00 0.00 0.00 61 1017.0
20260902190524 24 0 0.0 0.0 0.00 0.00 0.00 60 1016.9
20260902190004 24 0 0.0 0.0 0.00 0.00 0.00 60 1016.9
20260902185524 24 0 0.0 0.0 0.00 0.00 0.00 60 1016.8
20260902185003 24 0 0.0 0.0 0.00 0.00 0.00 60 1016.8
20260902184524 25 0 0.0 0.0 0.00 0.00 0.00 59 1016.7
20260902184003 25 0 0.0 0.0 0.00 0.00 0.00 59 1016.6
20260902183524 25 0 0.0 0.0 0.00 0.00 0.00 59 1016.7
20260902183024 25 0 0.0 0.0 0.00 0.00 0.00 59 1016.7
20260902182503 25 0 0.0 0.0 0.00 0.00 0.00 59 1016.5
20260902182004 25 0 0.0 0.0 0.00 0.00 0.00 58 1016.5
20260902181503 25 0 0.0 0.0 0.00 0.00 0.00 56 1016.6
20260902181024 25 0 0.0 0.0 0.00 0.00 0.00 56 1016.6
20260902180503 26 0 0.0 0.0 0.00 0.00 0.00 55 1016.6
20260902180006 26 0 0.0 0.0 0.00 0.00 0.00 55 1016.4
20260902175503 26 0 0.0 0.0 0.00 0.00 0.00 55 1016.5
20260902175003 26 0 0.0 0.0 0.00 0.00 0.00 55 1016.5
20260902174524 26 0 0.0 0.0 0.00 0.00 0.00 54 1016.4
20260902174003 27 0 0.0 0.0 0.00 0.00 0.00 54 1016.2
20260902173524 27 0 0.0 0.0 0.00 0.00 0.00 53 1016.3
20260902173024 27 0 0.0 0.0 0.00 0.00 0.00 50 1016.3
20260902172503 28 0 0.0 0.0 0.00 0.00 0.00 48 1016.3
20260902172004 28 0 0.0 0.0 0.00 0.00 0.00 46 1016.3
20260902171503 28 0 0.0 0.0 0.00 0.00 0.00 45 1016.4
20260902171003 29 0 0.0 0.0 0.00 0.00 0.00 45 1016.4
20260902170503 29 0 0.0 0.0 0.00 0.00 0.00 44 1016.5
20260902170003 29 0 0.0 0.0 0.00 0.00 0.00 44 1016.4
20260902165503 29 0 0.0 0.0 0.00 0.00 0.00 44 1016.3
20260902165003 29 0 0.0 0.0 0.00 0.00 0.00 44 1016.4
20260902164503 29 0 0.0 0.0 0.00 0.00 0.00 43 1016.4
20260902164024 29 315 0.0 3.2 0.00 0.00 0.00 44 1016.3
20260902163503 29 315 0.0 3.2 0.00 0.00 0.00 44 1016.4
20260902163003 29 292 1.6 4.8 0.00 0.00 0.00 44 1016.3
20260902162504 29 278 1.6 6.4 0.00 0.00 0.00 44 1016.2
20260902162024 29 280 1.6 6.4 0.00 0.00 0.00 44 1016.4
20260902161503 30 315 0.0 3.2 0.00 0.00 0.00 45 1016.2
20260902161024 30 315 0.0 3.2 0.00 0.00 0.00 45 1016.3
20260902160503 29 0 0.0 0.0 0.00 0.00 0.00 44 1016.4
20260902160005 29 360 0.0 3.2 0.00 0.00 0.00 44 1016.3
20260902155503 29 329 1.6 4.8 0.00 0.00 0.00 45 1016.4
20260902155003 30 310 0.0 4.8 0.00 0.00 0.00 45 1016.5
20260902154524 29 298 3.2 8.0 0.00 0.00 0.00 44 1016.5
20260902154003 29 304 4.8 8.0 0.00 0.00 0.00 43 1016.6
20260902153503 29 306 1.6 6.4 0.00 0.00 0.00 43 1016.6
20260902153003 29 267 0.0 3.2 0.00 0.00 0.00 43 1016.8
20260902152524 29 0 0.0 0.0 0.00 0.00 0.00 44 1016.6
20260902152003 28 0 0.0 0.0 0.00 0.00 0.00 44 1016.7
20260902151503 29 0 0.0 0.0 0.00 0.00 0.00 43 1016.9
20260902151024 29 0 0.0 0.0 0.00 0.00 0.00 43 1016.6
20260902150503 30 315 0.0 3.2 0.00 0.00 0.00 44 1016.7
20260902150003 30 297 1.6 11.3 0.00 0.00 0.00 44 1016.9
20260902145503 29 295 1.6 11.3 0.00 0.00 0.00 43 1016.9
20260902145003 29 315 1.6 6.4 0.00 0.00 0.00 43 1017.0
20260902144503 29 315 4.8 6.4 0.00 0.00 0.00 43 1017.0
20260902144003 30 315 3.2 6.4 0.00 0.00 0.00 43 1017.0
20260902143503 30 0 0.0 0.0 0.00 0.00 0.00 43 1016.9
20260902143003 30 0 0.0 0.0 0.00 0.00 0.00 43 1017.0
20260902142503 30 247 0.0 1.6 0.00 0.00 0.00 43 1017.0